Regional Weather Roundup
Issued by NWS

Home | Current Version | Previous Version | Graphics & Text | Print | Product List | Glossary Off
Versions: 1 2 3 4 5 6 7 8 9 10 11 12 13 14 15 16 17 18 19 20 21 22 23 24 25 26 27 28 29 30 31 32 33 34 35 36 37 38 39 40 41 42 43 44 45 46 47 48 49 50

000
ASUS43 KMKX 232121
RWRWI

WISCONSIN REGIONAL WEATHER ROUNDUP
NATIONAL WEATHER SERVICE MILWAUKEE/SULLIVAN WI
300 PM CST SUN NOV 23 2014

NOTE: "FAIR" INDICATES FEW OR NO CLOUDS BELOW 12,000 FEET WITH NO
SIGNIFICANT WEATHER AND/OR OBSTRUCTIONS TO VISIBILITY.

WIZ001-002-006>008-014>016-023>028-232200-
NORTHWEST WISCONSIN

CITY           SKY/WX    TMP DP  RH WIND       PRES   REMARKS
SUPERIOR ARPT  LGT RAIN  40  40  98 W3        29.39F
ASHLAND        CLOUDY    46  45  96 W3        29.39F FOG
HAYWARD        FOG       44  43  96 CALM      29.37F VSB<1/4
SIREN          CLOUDY    41  41  99 CALM      29.38F FOG
CUMBERLAND     FOG       41  41 100 CALM      29.36F VSB<1/4
RICE LAKE      FOG       44  43  97 CALM      29.38F VSB<1/4
CHETEK         FOG       42  42 100 E6        29.37F VSB<1/4
LADYSMITH      FOG       46  45  97 SE3       29.39F VSB<1/4
EAU CLAIRE     CLOUDY    49  48  97 S8        29.36F FOG
MENOMONIE      RAIN      47  47  98 E3        29.36F VSB 1/4
NEW RICHMOND   FOG       41  41 100 NW9       29.37F VSB 1/4
OSCEOLA        CLOUDY    41  41 100 CALM      29.40F FOG
$$

WIZ003>005-009-010-017-018-232200-
NORTH CENTRAL WISCONSIN

CITY           SKY/WX    TMP DP  RH WIND       PRES   REMARKS
MANITOWISH WTR FOG       42  42 100 S7        29.39F VSB<1/4
ARBOR VITAE    LGT RAIN  44  43  97 S7        29.40F VSB<1/4
WOODRUFF       LGT RAIN  44  43  97 S7        29.40F VSB<1/4
RHINELANDER    FOG       44  44 100 S5        29.42F VSB 1/4
EAGLE RIVER    FOG       43  43 100 S5        29.41F VSB<1/4
LAND O LAKES   FOG       44  44 100 S5        29.42F VSB 1/4
PHILLIPS       FOG       42  42 100 SE3       29.39F VSB<1/4
TOMAHAWK       DRZL/FOG  42  41  97 CALM      29.42F VSB<1/4
MEDFORD        FOG       42  42 100 SE6       29.39F VSB<1/4
MERRILL        DRZL/FOG  45  45 100 CALM      29.41F VSB<1/4
$$

WIZ029-030-035-036-043>047-232200-
CENTRAL WISCONSIN

CITY           SKY/WX    TMP DP  RH WIND       PRES   REMARKS
WAUSAU         LGT RAIN  46  46 100 CALM      29.40F VSB 1/4
MOSINEE        FOG       46  46 100 CALM      29.42F VSB 1/8
MARSHFIELD     LGT RAIN  48  47  96 S5        29.40F VSB 1/4
STEVENS POINT  DRIZZLE   46  46 100 SE5       29.42F
WAUPACA        LGT RAIN  49  48  97 SE6       29.44F
WAUTOMA        LGT RAIN  48  48 100 SE6       29.44F FOG
WISC RAPIDS    LGT RAIN  49  47  93 S6        29.43F FOG
CAMP DOUGLAS   DRIZZLE   50  50 100 E7        29.40F FOG
$$

WIZ011>013-019>022-031-037>040-048>050-232200-
NORTHEAST WISCONSIN

CITY           SKY/WX    TMP DP  RH WIND       PRES   REMARKS
ANTIGO         FOG       42  42 100 CALM      29.42F VSB<1/4
SHAWANO        LGT RAIN  49  48  95 S6        29.46S
OCONTO         CLOUDY    43  43 100 SE5       29.47F
STURGEON BAY   CLOUDY    45  43  93 S13       29.48F
GREEN BAY      LGT RAIN  46  45  96 S6        29.47F VSB 1/2
MANITOWOC      LGT RAIN  44  44 100 S12       29.49F FOG
APPLETON       LGT RAIN  46  46 100 S9        29.47F FOG
CLINTONVILLE   RAIN      46  45  93 S7        29.46S
OSHKOSH        LGT RAIN  48  46  93 S3        29.47F FOG
$$

WIZ032>034-041-042-053>061-232200-
SOUTHWEST WISCONSIN

CITY           SKY/WX    TMP DP  RH WIND       PRES   REMARKS
LA CROSSE      LGT RAIN  50  48  93 CALM      29.36F VSB 1/4
SPARTA         CLOUDY    49  48  98 E5        29.40F
VIROQUA        CLOUDY    48  48 100 SE8       29.38F
BOSCOBEL       LGT RAIN  50  48  93 CALM      29.39F FOG
PRAIRIE DU CHI LGT RAIN  49  48  95 E3        29.37F
PLATTEVILLE    CLOUDY    47  47  97 E8        29.40F
$$

WIZ056-057-062-063-064-067-068-232200-
SOUTH CENTRAL WISCONSIN

CITY           SKY/WX    TMP DP  RH WIND       PRES   REMARKS
REEDSBURG      LGT RAIN  47  47  99 SE5       29.41F
BARABOO/DELLS  LGT RAIN  47  45  93 CALM      29.42F
LONE ROCK      RAIN      51  46  83 E6        29.40S
MINERAL POINT  HVY RAIN  48  46  93 SE9       29.40S
MADISON        RAIN      48  46  93 S10       29.44F FOG
MIDDLETON      CLOUDY    49  48  98 SE5       29.43F
WATERTOWN      CLOUDY    47  47 100 SE6       29.45F FOG
MONROE         DRIZZLE   46  46 100 SE12      29.42F
JANESVILLE     LGT RAIN  50  48  93 SE10      29.45F FOG
$$

WIZ051-052-058>065-066-070>072-232200-
SOUTHEAST WISCONSIN

CITY           SKY/WX    TMP DP  RH WIND       PRES   REMARKS
MILWAUKEE      LGT RAIN  48  45  89 SE10      29.49F FOG
WAUKESHA       DRIZZLE   46  46 100 SE7       29.49F FOG
MILWAUKEE/TIMM DRIZZLE   48  46  93 SE6       29.50F
RACINE         LGT RAIN  47  44  90 S12       29.52F FOG
BURLINGTON     DRIZZLE   48  47  97 SE7       29.48F
KENOSHA        LGT RAIN  48  47  96 SE7       29.48F FOG
FOND DU LAC    HVY RAIN  48  46  93 S9        29.46F FOG
SHEBOYGAN      LGT RAIN  45  43  93 S9        29.49F FOG
WEST BEND      DRIZZLE   46  45  93 SE6       29.48F
JUNEAU         DRIZZLE   46  46  98 SE6       29.46F
$$

LSZ147-162-232200-
LAKE SUPERIOR

STATION/POSITION TIME  TEMP    WIND        PRES    WAVE
                       AIR SEA DIR/SP/G            HT/PER
                 (UTC) (F)     (DEG/KT/KT) (MB)    (FT/S)
DEVILS ISLAND    2100   41     280/  5/  5  995.3F
PORT WING        2000   41     190/  2/  3  995.9F
SAXON HARBOR     2000   50      CALM  /  9  995.6F
$$

LMZ867-665-643>646-232200-
LAKE MICHIGAN

STATION/POSITION TIME  TEMP    WIND        PRES    WAVE
                       AIR SEA DIR/SP/G            HT/PER
                 (UTC) (F)     (DEG/KT/KT) (MB)    (FT/S)
CHAMBERS ISLAND  2000   46     150/  3/  8  999.3F
N MID LAKE BUOY  2050   45 42  190/ 19/ 21  999.6F   5/ 7
NORTHPORT PIER   2000   43     140/  7/ 17  999.7F
SISTER BAY       2043          190/ 17/ 21   N/A
ALGOMA LAKESHORE 2013          220/ 13/ 15   N/A
KEWAUNEE LAKESHO 2100   40     170/  7/  8  998.3F
SHEBOYGAN LAKESH 2100   44 40  170/ 15/ 16  998.9F
PORT WASHINGTON  2000   43     190/  3/  5 1000.7F
ATWATER BUOY     2100   45     200/  2/  6 1000.6F
MILWAUKEE LAKESH 2100   43     160/ 13/ 14   N/A
S MID LAKE BUOY  2050   45 43  140/ 10/ 10 1000.2F   2/ 4
KENOSHA   LAKESH 2100   45     170/ 11/ 14  999.0F
$$

TC  - TEMPERATURE IN CELSIUS
VSB - VISIBILITY IN STATUTE MILES
WCI - WIND CHILL INDEX
HX  - HEAT INDEX




USA.gov is the U.S. government's official web portal to all federal, state and local government web resources and services.